[[{"header":{"parameterUnit":"m.s-1","parameterCategory":1,"la1":30.2991,"la2":30.254,"lo1":-89.0895,"lo2":-89.0444,"dy":0.0017,"dx":0.0017,"nx":28,"ny":28,"refTime":"2023-10-20T21:00:00:Z","depth":0,"parameterNumber":2,"parameterNumberName":"U-component_of_WINDS"},"data":[0,0,0,0,0,0,0,0,0,0,0,0,0,0,0,0,0,0,0,0,0,0,0,0,0,0,0,0,0,0,0,0,0,0,0,0,0,0,0,0,0,0,0,0,0,0,0,0,0,0,0,0,0,0,0,0,0,0,0.1065,0.1065,0,0.1104,0.1104,0.1105,0.108,0.1079,0.1078,0.1077,0.1121,0.1123,0.1125,0,0,0,0,0,0,0,0,0,0,0,0,0,0.0971,0.0972,0.1065,0.1065,0.1066,0.1104,0.1104,0.1105,0.1081,0.1079,0.1078,0.1076,0.112,0.1123,0.1126,0,0,0,0,0,0,0,0,0,0,0,0,0,0.1011,0.0973,0.1065,0.1058,0.1058,0.1104,0.1104,0.1105,0.1081,0.1079,0.1077,0.1076,0.1119,0.1123,0.1126,0.1182,0,0,0.1136,0.1138,0,0,0,0,0,0,0,0,0.1009,0.1014,0.1059,0.1059,0.1058,0.1085,0.1087,0.1131,0.1081,0.1072,0.1077,0.1075,0.1111,0.1115,0.1126,0.1184,0.1186,0.1137,0.1139,0.114,0.1141,0,0,0,0,0,0,0,0.1006,0.1013,0.108,0.1059,0.1059,0.1054,0.1058,0.1095,0.1101,0.1073,0.1071,0.1076,0.111,0.1123,0.1127,0.1186,0.1136,0.1139,0.1142,0.1143,0.129,0.1291,0,0,0,0,0,0,0.1003,0.101,0.1079,0.1082,0.1029,0.1057,0.1061,0.1079,0.11,0.1102,0.1077,0.1075,0.1118,0.1123,0.1128,0.1194,0.114,0.1143,0.1145,0.1288,0.129,0.1292,0,0,0,0,0,0,0.1001,0.101,0.1078,0.1045,0.1054,0.106,0.108,0.108,0.1093,0.1104,0.1105,0.1089,0.1117,0.1124,0.1168,0.1195,0.1145,0.1148,0.1286,0.1288,0.1291,0.1326,0,0,0,0,0,0,0.0999,0.1009,0.103,0.1046,0.1055,0.1116,0.1082,0.1082,0.1098,0.1095,0.1115,0.1117,0.1116,0.1163,0.1171,0.1199,0.115,0.1283,0.1287,0.129,0.1323,0.133,0.1336,0,0,0,0,0,0.0995,0.104,0.1031,0.104,0.1082,0.1118,0.1123,0.112,0.11,0.1122,0.1128,0.1116,0.1191,0.1168,0.1177,0.1206,0.1282,0.1286,0.129,0.132,0.1329,0.1336,0,0,0,0,0,0,0.1029,0.1042,0.1033,0.1083,0.1099,0.1113,0.114,0.113,0.1153,0.1149,0.1146,0.1151,0.1197,0.1206,0.118,0.126,0.1233,0.1239,0.1253,0.1261,0.1268,0.1265,0.1153,0,0,0,0,0,0.1041,0.1069,0.1079,0.1123,0.1131,0.1134,0.115,0.1146,0.1163,0.117,0.118,0.1198,0.1225,0.1244,0.1269,0.1323,0.1327,0.1348,0.1355,0.136,0.1366,0.1394,0.1403,0.1306,0.1306,0.1306,0,0,0.1069,0.108,0.1097,0.113,0.1142,0.117,0.114,0.1173,0.1194,0.1176,0.1217,0.1225,0.1245,0.1294,0.1316,0.1303,0.1393,0.1365,0.137,0.1372,0.1399,0.1408,0.1416,0.1309,0.1308,0.1308,0,0,0.1134,0.1145,0.1181,0.1193,0.1211,0.1213,0.1221,0.1237,0.1241,0.1282,0.1268,0.1294,0.1341,0.1355,0.1369,0.1436,0.1425,0.1444,0.148,0.1507,0.1514,0.1521,0.1545,0.1553,0.145,0.145,0.145,0,0.1166,0.1208,0.1202,0.1234,0.1249,0.1231,0.1268,0.1281,0.1307,0.1317,0.1301,0.1359,0.1371,0.1422,0.1438,0.145,0.146,0.1442,0.1514,0.152,0.1527,0.1549,0.1558,0.1452,0.1452,0.1451,0.1451,0,0.1247,0.1276,0.1303,0.1327,0.1344,0.1379,0.1378,0.1397,0.139,0.1393,0.1435,0.1449,0.1476,0.1488,0.1483,0.1538,0.1529,0.1514,0.1487,0.1538,0.1559,0.1567,0.1455,0.1454,0.1454,0.1453,0,0,0.1335,0.1353,0.1363,0.1373,0.139,0.1413,0.1446,0.1471,0.1487,0.1505,0.1532,0.1571,0.1556,0.1572,0.1568,0.1592,0.1643,0.1573,0.1574,0.1585,0.1703,0.1715,0.1725,0.1635,0.1637,0.1638,0.1701,0,0.1401,0.1458,0.1452,0.1507,0.1533,0.1516,0.1545,0.1559,0.1562,0.1585,0.1589,0.1616,0.1595,0.1604,0.1626,0.1632,0.1667,0.1627,0.1662,0.1663,0.1657,0.1736,0.1748,0.1808,0.1709,0.1711,0.1712,0,0.1485,0.1504,0.1561,0.1572,0.1583,0.1609,0.163,0.1653,0.1668,0.1668,0.1683,0.1675,0.1709,0.168,0.1726,0.1699,0.1712,0.1717,0.1719,0.1723,0.1691,0.1741,0.1826,0.1835,0.1725,0.1724,0.1723,0,0.1543,0.1583,0.1621,0.163,0.1645,0.1663,0.167,0.1683,0.1698,0.1717,0.1726,0.175,0.1763,0.1781,0.1779,0.1758,0.1825,0.1796,0.1827,0.1827,0.1842,0.1842,0.1931,0.1851,0.1851,0.1851,0.185,0,0.1617,0.1652,0.1647,0.1671,0.171,0.1703,0.1742,0.1747,0.1758,0.1782,0.1769,0.1792,0.1788,0.1812,0.181,0.1848,0.1854,0.1856,0.1855,0.1857,0.1857,0.1866,0.1862,0.1853,0.1852,0.1852,0.1852,0,0.1689,0.1687,0.1728,0.1737,0.174,0.1769,0.1777,0.1799,0.18,0.1831,0.1838,0.184,0.1867,0.1866,0.1897,0.1896,0.1942,0.1937,0.1937,0.1936,0.1966,0.1963,0.2064,0.2077,0.1989,0.199,0.199,0,0.1736,0.1763,0.1774,0.1789,0.1797,0.1821,0.1835,0.1829,0.1844,0.1862,0.1882,0.1907,0.1927,0.197,0.1975,0.1997,0.1993,0.2026,0.1996,0.1997,0.1993,0.1991,0.1993,0.2033,0.2034,0.2035,0.2035,0,0.182,0.1817,0.1838,0.1858,0.1875,0.1891,0.1905,0.1918,0.1913,0.1932,0.1957,0.1973,0.2002,0.2027,0.2049,0.2056,0.2045,0.2044,0.2052,0.2055,0.2054,0.2054,0.1953,0.2042,0.2042,0.2041,0.2041,0.204,0.1881,0.1903,0.1914,0.1937,0.1947,0.196,0.1981,0.1983,0.2005,0.2028,0.2023,0.2052,0.2064,0.2092,0.2101,0.2124,0.2112,0.2124,0.2127,0.213,0.2133,0.2049,0.2128,0.2128,0.2127,0.2127,0.2127,0,0.1964,0.1969,0.199,0.201,0.2028,0.2014,0.2028,0.2044,0.207,0.2082,0.2101,0.213,0.2153,0.2159,0.2181,0.2198,0.2193,0.2204,0.2203,0.2205,0.2143,0.2133,0.2207,0.2207,0.2207,0.2207,0.2207,0.2207,0.2009,0.2045,0.2043,0.2083,0.2089,0.2116,0.2126,0.2137,0.2147,0.218,0.2198,0.2201,0.221,0.2233,0.2253,0.2254,0.2263,0.2276,0.2275,0.2217,0.2209,0.2201,0.2192,0.2278,0.2278,0.2335,0.2335,0.2335]},{"header":{"parameterUnit":"m.s-1","parameterCategory":1,"la1":30.2991,"la2":30.254,"lo1":-89.0895,"lo2":-89.0444,"dy":0.0017,"dx":0.0017,"nx":28,"ny":28,"refTime":"2023-10-20T21:00:00:Z","depth":0,"parameterNumber":3,"parameterNumberName":"V-component_of_WINDS"},"data":[0,0,0,0,0,0,0,0,0,0,0,0,0,0,0,0,0,0,0,0,0,0,0,0,0,0,0,0,0,0,0,0,0,0,0,0,0,0,0,0,0,0,0,0,0,0,0,0,0,0,0,0,0,0,0,0,0,0,2.5479,2.5478,0,2.545,2.545,2.5449,2.5468,2.5469,2.547,2.547,2.5434,2.5432,2.543,0,0,0,0,0,0,0,0,0,0,0,0,0,2.5542,2.5541,2.5479,2.5478,2.5478,2.545,2.545,2.5449,2.5468,2.5469,2.547,2.5471,2.5434,2.5432,2.543,0,0,0,0,0,0,0,0,0,0,0,0,0,2.5514,2.554,2.5479,2.5484,2.5484,2.545,2.545,2.5449,2.5467,2.5469,2.547,2.5471,2.5435,2.5433,2.543,2.5387,0,0,2.5422,2.5421,0,0,0,0,0,0,0,0,2.5516,2.5512,2.5483,2.5483,2.5484,2.5464,2.5459,2.5428,2.5467,2.5473,2.547,2.5472,2.5442,2.5439,2.5431,2.5385,2.5384,2.5422,2.542,2.5419,2.5418,0,0,0,0,0,0,0,2.5517,2.5513,2.5467,2.5483,2.5483,2.5485,2.5483,2.5453,2.5451,2.5473,2.5474,2.5471,2.5443,2.5433,2.543,2.5383,2.5422,2.5419,2.5418,2.5417,2.53,2.5298,0,0,0,0,0,0,2.552,2.5514,2.5468,2.5466,2.5503,2.5483,2.548,2.5469,2.5451,2.545,2.547,2.5472,2.5437,2.5433,2.5429,2.5376,2.5419,2.5416,2.5415,2.5301,2.5299,2.5298,0,0,0,0,0,0,2.5521,2.5516,2.5469,2.5491,2.5485,2.5481,2.5468,2.5468,2.5458,2.5449,2.5448,2.5461,2.5438,2.5433,2.5398,2.5375,2.5415,2.5413,2.5303,2.5301,2.5299,2.5272,0,0,0,0,0,0,2.5523,2.5516,2.5501,2.549,2.5484,2.544,2.5466,2.5466,2.5455,2.5457,2.5441,2.5439,2.5439,2.5401,2.5395,2.5372,2.5411,2.5305,2.5302,2.5299,2.5275,2.5269,2.5264,0,0,0,0,0,2.5525,2.5494,2.5501,2.5495,2.5466,2.5439,2.5435,2.5438,2.5453,2.5437,2.5431,2.5439,2.5379,2.5398,2.539,2.5367,2.5306,2.5303,2.53,2.5277,2.527,2.5264,0,0,0,0,0,0,2.55,2.5492,2.55,2.5464,2.5453,2.5443,2.5422,2.543,2.5412,2.5415,2.5417,2.5413,2.5376,2.5368,2.5389,2.5324,2.5345,2.534,2.533,2.5324,2.5318,2.532,2.5408,0,0,0,0,0,2.5491,2.5472,2.5466,2.5434,2.5429,2.5427,2.5415,2.5418,2.5405,2.5399,2.5391,2.5375,2.5353,2.5338,2.5317,2.5274,2.527,2.5254,2.5249,2.5245,2.524,2.5215,2.5207,2.5287,2.5287,2.5287,0,0,2.547,2.5464,2.5451,2.5429,2.5421,2.5399,2.5422,2.5398,2.5381,2.5395,2.5362,2.5355,2.5338,2.5298,2.5281,2.5291,2.5217,2.524,2.5237,2.5234,2.5211,2.5203,2.5196,2.5285,2.5285,2.5285,0,0,2.5422,2.5416,2.5389,2.538,2.5368,2.5367,2.536,2.5349,2.5346,2.5313,2.5322,2.5301,2.5263,2.525,2.5239,2.5186,2.5192,2.5179,2.515,2.5126,2.512,2.5114,2.5093,2.5086,2.5174,2.5174,2.5174,0,2.5397,2.5367,2.5374,2.535,2.5338,2.5353,2.5324,2.5314,2.5294,2.5285,2.5298,2.525,2.5239,2.5196,2.5184,2.5174,2.5165,2.518,2.5121,2.5115,2.511,2.509,2.5082,2.5172,2.5173,2.5173,2.5173,0,2.5337,2.5316,2.5295,2.5278,2.5265,2.5239,2.5239,2.5224,2.5229,2.5225,2.5191,2.5179,2.5155,2.5146,2.5149,2.5103,2.5109,2.5121,2.5142,2.51,2.5082,2.5074,2.517,2.5171,2.5171,2.5171,0,0,2.527,2.5258,2.525,2.5242,2.5229,2.5212,2.5185,2.5165,2.5151,2.5137,2.5113,2.5081,2.5092,2.5078,2.508,2.5059,2.5016,2.5073,2.5073,2.5061,2.4962,2.4952,2.4943,2.5021,2.5019,2.5018,2.4963,0,2.522,2.5177,2.5182,2.5138,2.5118,2.5131,2.5107,2.5096,2.5092,2.5072,2.5067,2.5044,2.5061,2.5053,2.5033,2.5025,2.4995,2.503,2.4996,2.4994,2.4998,2.4934,2.4923,2.4871,2.4956,2.4954,2.4954,0,2.5156,2.5141,2.5097,2.5087,2.5078,2.5058,2.5038,2.502,2.5006,2.5005,2.4991,2.4996,2.4966,2.499,2.4947,2.4971,2.4957,2.4951,2.4949,2.4945,2.497,2.4925,2.4855,2.4846,2.4942,2.4943,2.4944,0,2.5109,2.5079,2.5048,2.5041,2.5029,2.5014,2.5008,2.4995,2.4982,2.4965,2.4956,2.4935,2.4922,2.4904,2.4902,2.492,2.4859,2.4883,2.4855,2.4855,2.484,2.4841,2.4765,2.4834,2.4835,2.4835,2.4835,0,2.5052,2.5024,2.5028,2.5008,2.4977,2.4982,2.4949,2.4944,2.4933,2.4912,2.4921,2.49,2.49,2.4878,2.4876,2.484,2.4835,2.4831,2.483,2.4829,2.4829,2.4819,2.4822,2.4833,2.4833,2.4833,2.4834,0,2.4994,2.4996,2.4963,2.4955,2.4952,2.4929,2.4921,2.4901,2.4899,2.4872,2.4865,2.486,2.4835,2.4832,2.4801,2.48,2.4756,2.4761,2.4762,2.4762,2.4734,2.4736,2.4647,2.4634,2.4714,2.4713,2.4712,0,2.4957,2.4936,2.4926,2.4913,2.4907,2.4886,2.4873,2.4877,2.4863,2.4846,2.4828,2.4804,2.4784,2.4742,2.4734,2.471,2.4712,2.4683,2.4709,2.4708,2.471,2.471,2.4707,2.4677,2.4676,2.4676,2.4675,0,2.4889,2.4891,2.4874,2.4856,2.4842,2.4828,2.4814,2.4803,2.4805,2.4788,2.4763,2.4748,2.4718,2.4693,2.4669,2.466,2.4666,2.4668,2.4659,2.4657,2.4658,2.4655,2.4746,2.4669,2.467,2.467,2.467,2.4671,2.4839,2.482,2.4811,2.4791,2.4782,2.4769,2.4751,2.4747,2.4727,2.4704,2.4707,2.4679,2.4664,2.4634,2.4623,2.4599,2.4609,2.4597,2.4594,2.4591,2.4587,2.4664,2.4595,2.4595,2.4595,2.4595,2.4596,0,2.477,2.4765,2.4747,2.4729,2.4713,2.4724,2.471,2.4695,2.4671,2.4658,2.4639,2.4609,2.4585,2.4576,2.4551,2.4534,2.4536,2.4527,2.4527,2.4525,2.4581,2.459,2.4525,2.4526,2.4526,2.4526,2.4526,2.4526,2.4733,2.4702,2.4703,2.4666,2.4661,2.4635,2.4626,2.4614,2.4603,2.4571,2.4552,2.4547,2.4534,2.4509,2.4486,2.4484,2.4473,2.4463,2.4461,2.4514,2.4521,2.4527,2.4536,2.4461,2.4461,2.4406,2.4406,2.4405]}]]